FLOCK 4Y-30 (55025 NORAD) Tracking and Keplerian Element Data

This shows tracking and keplerian element data for the satellite.

Feedback or suggestion? Click here.




ElementValue
Catalog55025
NameFLOCK 4Y-30
Epoch Orbit1249
Epoch Day85.17334191
Epoch Year2023
RAAN146.0173
Inclination97.4903
Eccentricity0.0009813
Argument of Perigee300.5749
Mean Anonmoly59.4515
Mean Motion15.15826192
Decay Rate0.00029938
L11 55025U 23001S 23085.17334191 .00029938 00000+0 15630-2 0 9997
L22 55025 97.4903 146.0173 0009813 300.5749 59.4515 15.15826192 12497



Live tracking and technical data element details for FLOCK 4Y-30 (NORAD 55025). FLOCK 4Y-30 can be tracked NOW for your location showing map with azimuth and elevation plus other details from your city location.







IsCatalogInMostPopularTable: catalog: 55025, numindb: 11
Update: records affected: 1



GetName: 55025 FLOCK 4Y-30

Hit Count: updated at: Mon, 27 Mar 2023 07:10:37 GMT